Regional Weather Roundup
Issued by NWS

Home | Current Version | Previous Version | Text Only | Print | Product List | Glossary Off
Versions: 1 2 3 4 5 6 7 8 9 10 11 12 13 14 15 16 17 18 19 20 21 22 23 24 25 26 27 28 29 30 31 32 33 34 35 36 37 38 39 40 41 42 43 44 45 46 47 48 49 50

000
ASUS43 KLMK 241702
RWRKY
KENTUCKY REGIONAL WEATHER ROUNDUP
NATIONAL WEATHER SERVICE LOUISVILLE KY
100 PM EDT WED AUG 24 2016

NOTE "FAIR" INDICATES FEW OR NO CLOUDS BELOW 12,000 FEET
WITH NO SIGNIFICANT WEATHER AND/OR OBSTRUCTIONS TO VISIBILITY.

KYZ001>023-026-027-061>063-070>075-241800-
WESTERN AND SOUTH CENTRAL KENTUCKY

CITY           SKY/WX    TMP DP  RH WIND       PRES   REMARKS
PADUCAH        PTSUNNY   88  75  65 SW8G18    30.13F HX  97
HENDERSON      PTSUNNY   88  73  62 SW12G17   30.12F HX  96
OWENSBORO      CLOUDY    89  78  70 SW13      30.15F HX 102
HOPKINSVILLE   MOSUNNY   88  75  66 SW14      30.18S HX  97
BOWLING GREEN  MOSUNNY   87  74  64 SW10      30.20S HX  95
GLASGOW        MOSUNNY   86  73  65 SW9       30.21S HX  92
$$

KYZ024-025-028>034-038-045-046-053-241800-
NORTH CENTRAL KENTUCKY

CITY           SKY/WX    TMP DP  RH WIND       PRES   REMARKS
LOUISVILLE/SDF PTSUNNY   88  73  61 SW10      30.16F HX  95
LOUISVILLE/LOU MOSUNNY   87  72  60 SW8G18    30.17F HX  93
FORT KNOX      SUNNY     87  74  64 SW13      30.17S HX  96
$$

KYZ035>037-039>044-047>052-055>060-089>105-241800-
NORTHEAST KENTUCKY

CITY           SKY/WX    TMP DP  RH WIND       PRES   REMARKS
LEXINGTON      MOSUNNY   86  70  58 SW13G18   30.21F HX  90
COVINGTON      CLOUDY    83  73  72 SW9       30.17F
FRANKFORT      MOSUNNY   86  71  60 SW10G21   30.18F HX  91
$$

KYZ054-064>069-076>088-106>120-241800-
SOUTHEAST KENTUCKY

CITY           SKY/WX    TMP DP  RH WIND       PRES   REMARKS
JACKSON        MOSUNNY   82  71  69 CALM      30.26F
LONDON         CLOUDY    83  67  58 W8        30.26F
SOMERSET       PTSUNNY   82  68  61 CALM      30.25S
MIDDLESBORO    CLOUDY    80  69  68 S6        30.27F
MONTICELLO     SUNNY    N/A N/A N/A NW9       30.25F
$$





USA.gov is the U.S. government's official web portal to all federal, state and local government web resources and services.